Weather History for St. Petersburg Airport, FL

Change the Weather History Date:

Friday, March 1, 2013

  Actual Average Record
Temperature  
Mean Temperature 58 °F -  
Max Temperature 61 °F 72 °F 87 °F (1997)
Min Temperature 54 °F 58 °F 42 °F (1968)
Degree Days  
Heating Degree Days 8    
Growing Degree Days 8 (Base 50)    
Moisture  
Dew Point 41 °F    
Average Humidity 55    
Maximum Humidity 67    
Minimum Humidity 45    
Precipitation  
Precipitation 0.00 in - - ()
Sea Level Pressure  
Sea Level Pressure 30.00 in    
Wind  
Wind Speed 11 mph (NNW)    
Max Wind Speed 15 mph    
Max Gust Speed 22 mph    
Visibility 10 miles    
Events      
Averages and records for this station are not official NWS values.
T = Trace of Precipitation, MM = Missing Value Source: NWS Daily Summary

Daily Weather History Graph

Daily Weather History Graph

Search for Another Location

Airport:

Trip Planner

Search our weather history database for the weather conditions in past years. The results will help you decide how hot, cold, wet, or windy it might be!

Date:

Astronomy

Mar. 01, 2013 Rise Set
Actual Time 6:55 AM EST 6:31 PM EST
Civil Twilight 6:31 AM EST 6:54 PM EST
Nautical Twilight 6:04 AM EST 7:22 PM EST
Astronomical Twilight 5:37 AM EST 7:49 PM EST
Moon 10:35 PM EST (3/1) 9:06 AM EST (3/1)
Length of Visible Light 12h 23m
Length of Day
11h 36m
Waning Gibbous, 83% of the Moon is Illuminated
Mar 1
Waning Gibbous
Mar 4
Last Quarter
Mar 11
New
Mar 19
First Quarter
Mar 27
Full

Hourly Weather History & Observations

Time (EST) Temp. Dew Point Humidity Pressure Visibility Wind Dir Wind Speed Gust Speed Precip Events Conditions
12:53 AM 57.9 °F 46.0 °F 65% 29.98 in 10.0 mi NW 8.1 mph - N/A   Clear
1:53 AM 59.0 °F 46.0 °F 62% 29.96 in 10.0 mi NW 10.4 mph - N/A   Clear
2:53 AM 57.9 °F 46.0 °F 65% 29.96 in 10.0 mi WNW 10.4 mph - N/A   Clear
4:53 AM 57.9 °F 46.9 °F 67% 29.94 in 10.0 mi NNW 9.2 mph - N/A   Clear
5:53 AM 55.9 °F 43.0 °F 62% 29.97 in 10.0 mi NNE 11.5 mph - N/A   Partly Cloudy
6:53 AM 54.0 °F 41.0 °F 62% 29.99 in 10.0 mi NNE 13.8 mph - N/A   Scattered Clouds
7:53 AM 54.0 °F 39.9 °F 59% 30.01 in 10.0 mi NNE 10.4 mph - N/A   Clear
8:53 AM 55.0 °F 37.9 °F 53% 30.02 in 10.0 mi NNE 10.4 mph - N/A   Clear
9:53 AM 57.0 °F 39.9 °F 53% 30.04 in 10.0 mi North 9.2 mph - N/A   Partly Cloudy
10:53 AM 57.9 °F 41.0 °F 53% 30.04 in 7.0 mi NNE 6.9 mph - N/A   Partly Cloudy
11:53 AM 60.8 °F 42.8 °F 52% 30.03 in 10.0 mi NNW 11.5 mph - N/A   Mostly Cloudy
12:53 PM 60.8 °F 42.8 °F 52% 30.00 in 10.0 mi NNW 12.7 mph - N/A   Scattered Clouds
1:53 PM 61.0 °F 44.1 °F 54% 29.98 in 10.0 mi NNW 12.7 mph - N/A   Scattered Clouds
2:53 PM 60.1 °F 42.1 °F 51% 29.98 in 10.0 mi NW 12.7 mph 21.9 mph N/A   Partly Cloudy
3:53 PM 59.0 °F 42.1 °F 53% 29.99 in 10.0 mi NW 13.8 mph 20.7 mph N/A   Scattered Clouds
4:53 PM 57.9 °F 42.1 °F 56% 29.99 in 10.0 mi NW 15.0 mph - N/A   Partly Cloudy
5:53 PM 55.4 °F 37.4 °F 51% 29.99 in 10.0 mi NW 11.5 mph 17.3 mph N/A   Clear
6:53 PM 55.9 °F 37.9 °F 51% 30.02 in 10.0 mi NW 11.5 mph - N/A   Overcast
7:53 PM 55.9 °F 37.0 °F 49% 30.03 in 10.0 mi WNW 11.5 mph - N/A   Overcast
8:53 PM 55.9 °F 35.1 °F 45% 30.03 in 10.0 mi WNW 10.4 mph - N/A   Overcast
9:53 PM 55.9 °F 37.0 °F 49% 30.05 in 10.0 mi WNW 13.8 mph - N/A   Clear
10:53 PM 55.9 °F 37.0 °F 49% 30.05 in 10.0 mi NW 12.7 mph - N/A   Clear
11:53 PM 55.9 °F 37.0 °F 49% 30.04 in 10.0 mi NW 13.8 mph - N/A   Partly Cloudy